Regional Weather Roundup
Issued by NWS

Home | Current Version | Previous Version | Graphics & Text | Print | Product List | Glossary On
Versions: 1 2 3 4 5 6 7 8 9 10 11 12 13 14 15 16 17 18 19 20 21 22 23 24 25 26 27 28 29 30 31 32 33 34 35 36 37 38 39 40 41 42 43 44 45 46 47 48 49 50
000
ASUS43 KMPX 030301
RWRMN
WEATHER ROUNDUP FOR MINNESOTA
NATIONAL WEATHER SERVICE TWIN CITIES/CHANHASSEN MN
900 PM CST MON MAR 02 2015


NOTE: "FAIR" INDICATES FEW OR NO CLOUDS BELOW 12,000 FEET WITH NO
SIGNIFICANT WEATHER AND/OR OBSTRUCTIONS TO VISIBILITY. N/A MEANS
CURRENT SKY AND/OR WEATHER CONDITIONS ARE NOT AVAILABLE.

MNZ060>063-068>070-030400-
   Twin Cities Metro

CITY           SKY/WX    TMP DP  RH WIND       PRES   REMARKS
TWIN CITIES    CLOUDY    21  10  62 SE10      30.14F WCI  10
ST PAUL        CLOUDY    21  10  62 S12       30.16F WCI   9
CRYSTAL        CLOUDY    22  11  62 SE13      30.12F WCI  10
LAKEVILLE      CLOUDY    19  12  73 S9        30.14F WCI   9
EDEN PRAIRIE   CLOUDY    21  11  65 SE13      30.12F WCI   9
SOUTH ST PAUL  CLOUDY    22  10  61 S9        30.15F WCI  12
LAKE ELMO      CLOUDY    23  12  63 S12       30.15F WCI  12
$$
MNZ001>005-007-008-013>017-022>024-027-028-030400-
   Northwest Minnesota

CITY           SKY/WX    TMP DP  RH WIND       PRES   REMARKS
BEMIDJI        CLOUDY    23  12  61 S16G23    29.90F WCI  10
HALLOCK        CLEAR     21  18  86 S23       29.80F WCI   5
ROSEAU         CLOUDY    27  18  69 S21       29.82F WCI  13
WARROAD        CLOUDY    25  12  58 S13G20    29.82F WCI  13
THIEF RVR FALL MOCLDY    25  16  68 S17       29.83F WCI  11
CROOKSTON      PTCLDY    25  18  74 S25       29.85F WCI   9
FOSSTON        CLOUDY    23  16  74 S24G30    29.85F WCI   7
DETROIT LAKES  MOCLDY    27  18  69 S21       29.91F WCI  13
MOORHEAD       CLOUDY    27  19  74 S24G31    29.89F WCI  12
PARK RAPIDS    CLOUDY    24  13  62 S17       29.93F WCI  11
MAHNOMEN       CLOUDY    25  16  68 S16G29    29.87F WCI  12
$$
MNZ006-009>011-018-025>026-030400-
   North Central Minnesota

CITY           SKY/WX    TMP DP  RH WIND       PRES   REMARKS
BAUDETTE       CLOUDY    23   8  52 S13       29.85F WCI  11
FLAG ISLAND    CLOUDY    19  10  68 SE15      29.82F WCI   5
INTL FALLS     CLOUDY    23   5  46 S10G20    29.91F WCI  12
WASKISH        CLOUDY    25  10  54 S8G20     29.89F WCI  16
BIG FORK       CLOUDY    23   9  54 S15G24    29.94F WCI  10
LONGVILLE      CLOUDY    23  10  58 S14G22    29.97F WCI  11
GRAND RAPIDS   CLOUDY    21   7  53 S21       29.98F WCI   6
CRANE LAKE     PTCLDY    19   1  45 S7        29.99F WCI  10
ORR            CLOUDY    19   1  45 S10G18    29.95F WCI   8
COOK           CLOUDY    21   7  53 S8        29.99F WCI  12
WALKER         CLOUDY    23  10  56 S10G17    29.94F WCI  12
$$
MNZ012-019>021-037-030400-
   Northeast Minnesota

CITY           SKY/WX    TMP DP  RH WIND       PRES   REMARKS
DULUTH         CLOUDY    21   5  50 S14       30.04F WCI   8
ELY            CLEAR     18   1  49 S7        30.01F WCI   8
HIBBING        CLOUDY    21   4  47 S12G21    30.00F WCI   9
EVELETH        PTCLDY    21   5  49 S9        30.03F WCI  11
DULUTH HARBOR  CLOUDY    23   9  54 S5        30.13F WCI  17
TWO HARBORS    CLOUDY    25   9  50 S12       30.07F WCI  14
SILVER BAY     MOCLDY    23   9  54 S10G17    30.07F WCI  12
GRAND MARAIS     N/A     28  14  55 SW16      30.11F WCI  16
G MARAIS ARPRT PTCLDY    16   9  73 S5        30.03F WCI   9
$$
MNZ029>031-032-039>041-046>048-054>057-064-030400-
   West Central Minnesota

CITY           SKY/WX    TMP DP  RH WIND       PRES   REMARKS
FERGUS FALLS   CLOUDY    25  16  68 S17G28    29.97F WCI  11
WHEATON        CLOUDY    25  18  74 SE23      29.94F WCI  10
MORRIS         CLOUDY    25  19  80 SE22      29.96F WCI  10
ALEXANDRIA     CLOUDY    22  15  75 S20       29.98F WCI   7
ELBOW LAKE     CLOUDY    23  18  81 SE21G29   29.93F WCI   8
WADENA         CLOUDY    21  14  73 S15G23    29.95F WCI   8
GLENWOOD       CLOUDY    21  18  86 SE17G23   30.00F WCI   7
APPLETON       CLOUDY    27  19  74 SE15G22   29.98F WCI  15
BENSON         CLOUDY    25  18  74 S17G23    30.00F WCI  11
ORTONVILLE     CLOUDY    27  18  69 SE14G20   29.95F WCI  15
MADISON        CLOUDY    28  21  74 S17       29.97F WCI  16
WILLMAR        CLOUDY    25  18  74 SE15      30.05F WCI  12
$$
MNZ033>034-036-042>043-049>051-058-059-030400-
   Central Minnesota

CITY           SKY/WX    TMP DP  RH WIND       PRES   REMARKS
ST CLOUD       CLOUDY    22  11  62 S15       30.08F WCI   9
SAUK CENTRE    CLOUDY    22  14  71 SE13      30.02F WCI  10
PAYNESVILLE    CLOUDY    20  14  76 E9        30.05F WCI  10
AITKIN         CLOUDY    25   9  50 S13       30.02F WCI  13
PINE RIVER     CLOUDY    21  12  68 S12G24    30.01F WCI   9
BRAINERD       CLOUDY    22  11  62 S13       30.02F WCI  10
STAPLES        CLOUDY    21  10  63 SE13G20   29.98F WCI   9
LITTLE FALLS   CLOUDY    23  12  63 SE7       30.05F WCI  15
LITCHFIELD     CLOUDY    23  16  74 SE7       30.07F WCI  15
BUFFALO        CLOUDY    22  12  64 SE8       30.11F WCI  13
MAPLE LAKE     CLOUDY    23  15  69 SE7G17    30.10F WCI  15
$$
MNZ037-044-045-052-053-030400-
   East Central Minnesota

CITY           SKY/WX    TMP DP  RH WIND       PRES   REMARKS
PRINCETON      CLOUDY    25  12  58 SE10      30.09F WCI  15
MORA           MOCLDY    21   9  58 S8        30.11F WCI  12
CAMBRIDGE      CLOUDY    25  10  54 SE8       30.10F WCI  16
RUSH CITY      CLOUDY    21   8  56 S7        30.12F WCI  13
MOOSE LAKE     CLOUDY    23   5  46 S7G16     30.06F WCI  15
HINCKLEY       CLOUDY    23  10  58 S12       30.11F WCI  12
CLOQUET        CLOUDY    21   5  49 S9        30.05F WCI  11
MCGREGOR       CLOUDY    23   9  54 S9G16     30.04F WCI  13
$$
MNZ071>073-080-081-089-090-097-098-030400-
   Southwest Minnesota

CITY           SKY/WX    TMP DP  RH WIND       PRES   REMARKS
MONTEVIDEO     CLOUDY    25  19  80 S14G24    30.01F WCI  13
GRANITE FALLS  CLOUDY    25  19  80 SE17      30.04F WCI  11
CANBY          LGT SNOW  28  22  79 SE13      29.98F WCI  17
MARSHALL       CLOUDY    27  18  69 S16       30.02F WCI  14
REDWOOD FALLS  CLOUDY    25  19  78 S18       30.05F WCI  11
OLIVIA         CLOUDY    23  19  86 SE14      30.04F WCI  11
PIPESTONE      CLOUDY    27  21  80 S18       29.94F WCI  13
WINDOM         CLOUDY    25  19  80 SE16      30.03F WCI  12
WORTHINGTON    CLOUDY    25  18  74 S14G21    30.01F WCI  13
JACKSON        CLOUDY    27  21  80 SE13      30.04F WCI  16
TRACY          CLOUDY    26  21  80 S14       30.01F WCI  15
SLAYTON        CLOUDY    25  19  80 SE17      29.99F WCI  11
$$
MNZ065>067-074>077-082>085-091>093-030400-
   South Central Minnesota

CITY           SKY/WX    TMP DP  RH WIND       PRES   REMARKS
MANKATO        CLOUDY    21  14  73 SE14      30.11F WCI   8
NEW ULM        CLOUDY    21  16  79 SE10      30.09S WCI  10
ST JAMES       CLOUDY    25  19  80 SE18      30.09F WCI  11
FAIRMONT       CLOUDY    21  16  79 SE17      30.06F WCI   7
GLENCOE        CLOUDY    23  17  78 SE9       30.09F WCI  13
FARIBAULT      CLOUDY    21  12  68 SE7       30.13F WCI  13
OWATONNA       CLOUDY    21  12  68 SE16      30.12F WCI   7
WASECA         CLOUDY    21  14  73 SE13G20   30.13F WCI   9
ALBERT LEA     CLOUDY    21  16  79 SE14      30.12F WCI   8
$$
MNZ078>079-086>088-094>096-030400-
   Southeast Minnesota

CITY           SKY/WX    TMP DP  RH WIND       PRES   REMARKS
ROCHESTER      CLOUDY    20  11  68 S10       30.15F WCI   9
RED WING       CLOUDY    23  10  58 S6        30.18F WCI  16
STANTON        CLOUDY    22  14  70 S10       30.14F WCI  11
DODGE CENTER   CLOUDY    19  12  73 S10       30.13F WCI   8
WINONA         CLOUDY    27  14  59 S6        30.20F WCI  20
AUSTIN         CLOUDY    19  12  73 S7        30.14F WCI  10
PRESTON        CLOUDY    19  10  67 S10G16    30.16F WCI   8
$$
ABBREVIATIONS USED IN REMARKS
   TC - TEMPERATURES IN CELSIUS
  WCI - WIND CHILL INDEX
   HX - HEAT INDEX
  VSB - VISIBILITY
$$


USA.gov is the U.S. government's official web portal to all federal, state and local government web resources and services.